Retour au catalogue

STARLINK-35982

ActifCommunicationsVLEO
NORAD 66828·PAYLOAD·🇺🇸 United States

Lancé Dec 2, 2025 depuis Vandenberg Space Force Base

Loading…

Prochains Passages (prochaines 24 heures)

TLE

FraisSource: CelesTrak SupGP

Époque: Sep 14, 2026, 21:39 UTC

1 66828C 25280H   26257.90256944  .00008231  00000+0  68964-3 0  2574
2 66828  70.0010 217.4940 0003445 261.7456 158.9669 14.98335463    15

Suivez STARLINK-35982 en temps réel avec AllMySat

Download on the App Store